Total_Precipitation_Accumulation
-0.02 -0.02 -0.03 -0.02 -0.04 -0.04 -0.02 -0.01 -0.01 -0.01 -0.00 -0.00 -0.00 -0.00 -0.04 -0.15 -0.15 -0.26 -0.37 -0.36 -0.36 -0.38 -0.30 -0.40 -0.63 -0.63 -0.83 -1.11 -1.20 -1.20 -0.79 -0.62 -0.46 -0.46 -0.63 -0.58 -0.58 -0.38 -0.23 -0.21 -0.21 -0.02 0.23 0.19 0.34 0.34 0.24 0.10 0.10 0.10 0.11 0.11 0.10 0.10 0.09 0.14 0.14 0.12 0.04 0.00 0.00 0.00 0.00 0.00 0.00 0.00 0.00 0.00 -0.01 -0.01 0.00 0.00 0.00 0.00 0.00 -0.00 -0.00 -0.08 -0.07 -0.00 -0.00 0.06 -0.00 -0.01 -0.01 -0.01 0.44 0.43 0.09 0.09 0.01 -0.01 -0.00 -0.00 -0.00 -0.00 -0.00 0.00 0.00 0.00 0.00 0.00 0.00
-0.02 -0.02 -0.02 -0.02 -0.03 -0.03 -0.03 -0.02 -0.00 -0.00 -0.00 -0.01 -0.01 -0.01 -0.02 -0.05 -0.05 -0.25 -0.26 -0.30 -0.30 -0.32 -0.22 -0.28 -0.49 -0.49 -0.68 -1.06 -1.18 -1.18 -0.95 -0.66 -0.50 -0.50 -0.42 -0.48 -0.48 -0.28 -0.26 -0.10 -0.10 0.20 0.22 0.24 0.36 0.36 0.30 0.13 0.11 0.11 0.10 0.11 0.11 0.11 0.10 0.09 0.09 0.10 0.08 0.01 0.01 0.00 0.00 0.00 0.00 0.00 0.00 0.00 -0.01 -0.01 -0.00 0.00 0.00 0.00 0.00 -0.00 -0.00 -0.04 0.01 -0.01 -0.01 0.05 -0.00 -0.01 -0.01 -0.01 0.34 0.27 0.25 0.25 -0.01 -0.01 -0.00 -0.00 -0.00 -0.00 -0.00 0.00 0.00 0.00 0.00 0.01 0.00
-0.01 -0.02 -0.03 -0.03 -0.02 -0.02 -0.02 -0.02 -0.01 -0.01 -0.01 -0.00 -0.00 -0.00 -0.01 -0.01 -0.01 -0.16 -0.24 -0.19 -0.19 -0.24 -0.27 -0.21 -0.29 -0.29 -0.53 -0.72 -1.05 -1.05 -1.31 -0.78 -0.55 -0.55 -0.38 -0.37 -0.37 -0.21 -0.19 -0.04 -0.04 0.08 0.20 0.22 0.38 0.38 0.39 0.29 0.12 0.12 0.12 0.11 0.11 0.11 0.10 0.10 0.10 0.07 0.06 0.02 0.02 0.01 0.00 0.00 0.00 0.00 0.00 0.00 -0.01 -0.01 -0.00 0.00 -0.00 -0.00 0.00 -0.00 -0.00 -0.03 0.05 0.06 0.06 0.06 -0.00 -0.01 -0.01 -0.01 0.05 0.24 0.25 0.25 0.10 -0.00 -0.01 -0.01 -0.01 -0.00 -0.00 -0.00 0.00 0.00 0.00 0.01 0.00
-0.01 -0.01 -0.02 -0.02 -0.02 -0.02 -0.03 -0.04 -0.01 -0.01 -0.01 -0.00 -0.00 -0.00 -0.00 -0.01 -0.01 -0.01 -0.03 -0.11 -0.11 -0.15 -0.21 -0.20 -0.24 -0.24 -0.40 -0.61 -0.89 -0.89 -1.25 -1.04 -0.74 -0.74 -0.42 -0.37 -0.37 -0.20 -0.25 -0.20 -0.20 0.03 0.06 0.13 0.30 0.30 0.47 0.35 0.13 0.13 0.12 0.11 0.10 0.10 0.11 0.12 0.12 0.07 0.05 0.04 0.04 0.02 0.01 0.00 0.00 0.00 0.00 0.00 0.00 0.00 0.00 0.00 0.00 0.00 0.00 -0.00 -0.00 -0.01 0.03 0.03 0.03 0.01 -0.01 -0.02 -0.01 -0.01 0.05 0.20 0.24 0.24 0.14 0.01 -0.01 -0.01 -0.01 -0.00 -0.00 0.00 0.00 0.00 0.00 0.00 0.00
-0.02 -0.00 -0.01 -0.03 -0.01 -0.01 -0.02 -0.02 -0.03 -0.03 -0.01 -0.00 -0.00 -0.00 -0.00 -0.01 -0.01 -0.01 -0.01 -0.03 -0.03 -0.12 -0.16 -0.18 -0.18 -0.18 -0.33 -0.42 -0.71 -0.71 -1.07 -1.22 -1.06 -1.06 -0.73 -0.44 -0.44 -0.43 -0.31 -0.29 -0.29 -0.04 0.02 0.10 0.17 0.17 0.54 0.41 0.14 0.14 0.12 0.12 0.10 0.10 0.09 0.08 0.08 0.08 0.05 0.04 0.04 0.03 0.02 0.01 0.00 0.00 0.00 0.00 0.00 0.00 0.00 0.00 0.00 0.00 0.00 0.00 0.00 0.01 0.05 0.02 0.02 0.01 0.00 -0.01 -0.01 -0.01 0.05 0.24 0.12 0.12 0.13 0.15 -0.01 -0.01 -0.01 -0.01 -0.01 0.00 0.00 0.00 0.00 0.01 0.02
-0.02 -0.01 -0.00 -0.00 -0.03 -0.03 -0.03 -0.02 -0.01 -0.01 -0.02 -0.00 -0.00 -0.00 -0.00 -0.00 -0.00 -0.01 -0.01 -0.01 -0.01 -0.06 -0.09 -0.15 -0.20 -0.20 -0.27 -0.37 -0.52 -0.52 -0.83 -1.24 -1.35 -1.35 -1.28 -0.79 -0.79 -0.55 -0.47 -0.44 -0.44 -0.07 0.00 0.00 0.11 0.11 0.31 0.41 0.24 0.24 0.11 0.11 0.11 0.11 0.09 0.07 0.07 0.06 0.05 0.04 0.04 0.04 0.03 0.01 0.00 0.00 0.00 0.00 0.00 0.00 0.00 0.00 0.00 0.00 0.00 0.00 0.00 -0.00 0.06 0.04 0.04 0.01 -0.01 -0.02 0.00 0.00 -0.00 0.23 0.13 0.13 0.11 0.14 0.08 0.08 -0.01 -0.00 -0.00 0.00 0.00 0.00 0.00 0.02 0.02
-0.01 -0.01 -0.02 -0.00 -0.03 -0.03 -0.04 -0.04 -0.02 -0.02 -0.02 -0.01 -0.00 -0.00 -0.00 -0.00 -0.00 -0.00 -0.00 -0.01 -0.01 -0.04 -0.04 -0.08 -0.18 -0.18 -0.21 -0.30 -0.41 -0.41 -0.66 -0.98 -1.42 -1.42 -1.54 -1.05 -1.05 -0.67 -0.56 -0.49 -0.49 -0.35 -0.03 -0.09 0.06 0.06 0.17 0.34 0.19 0.19 0.10 0.10 0.10 0.10 0.10 0.08 0.08 0.05 0.05 0.04 0.04 0.05 0.05 0.02 0.00 0.00 0.00 0.00 0.00 0.00 0.00 0.00 0.00 0.00 0.00 0.00 0.00 -0.00 0.06 0.04 0.04 0.02 -0.01 -0.03 0.01 0.01 -0.00 0.03 0.12 0.12 0.02 0.14 0.09 0.09 0.01 -0.00 -0.00 0.00 0.00 0.00 0.00 0.00 0.01
-0.00 -0.01 -0.01 -0.01 -0.01 -0.01 -0.04 -0.04 -0.04 -0.04 -0.03 -0.01 -0.00 -0.00 -0.00 -0.00 -0.00 -0.00 -0.00 -0.00 -0.00 -0.01 -0.06 -0.03 -0.17 -0.17 -0.24 -0.30 -0.38 -0.38 -0.60 -0.90 -1.44 -1.44 -1.48 -1.90 -1.90 -1.01 -0.84 -0.57 -0.57 -0.50 -0.10 -0.15 -0.10 -0.10 -0.05 0.12 0.15 0.15 0.10 0.09 0.09 0.09 0.10 0.07 0.07 0.05 0.04 0.04 0.04 0.05 0.05 0.04 0.01 0.01 0.00 0.00 0.00 0.00 0.00 0.00 0.00 0.00 0.00 0.03 0.03 -0.00 0.02 0.04 0.04 0.05 0.00 -0.03 0.00 0.00 0.00 0.03 0.17 0.17 0.02 0.04 0.09 0.09 0.04 0.01 0.01 0.00 0.00 0.00 0.00 0.00 0.04
-0.01 -0.01 -0.01 -0.01 -0.01 -0.01 -0.02 -0.04 -0.04 -0.04 -0.03 -0.01 -0.01 -0.01 0.00 -0.00 -0.00 -0.01 -0.01 0.00 0.00 -0.00 -0.03 -0.03 -0.13 -0.13 -0.18 -0.28 -0.36 -0.36 -0.44 -0.68 -1.02 -1.02 -1.53 -1.87 -1.87 -1.65 -0.93 -0.64 -0.64 -0.52 -0.33 -0.16 -0.08 -0.08 -0.13 0.05 0.12 0.12 0.12 0.09 0.08 0.08 0.08 0.11 0.11 0.09 0.06 0.05 0.05 0.05 0.05 0.05 0.03 0.03 0.03 0.00 0.00 0.00 0.00 0.00 0.00 0.00 0.00 0.05 0.05 -0.00 0.01 0.02 0.02 0.05 -0.00 -0.03 0.00 0.00 0.02 0.03 0.12 0.12 0.02 0.04 0.09 0.09 0.06 0.01 0.01 0.00 0.00 0.00 0.00 0.00 0.05
-0.01 -0.01 -0.01 -0.01 -0.01 -0.01 -0.01 -0.02 -0.02 -0.02 -0.04 -0.03 -0.02 -0.02 -0.01 -0.01 -0.01 0.00 -0.00 -0.01 -0.01 -0.01 -0.00 -0.01 -0.13 -0.13 -0.15 -0.21 -0.34 -0.34 -0.45 -0.61 -0.74 -0.74 -1.42 -1.66 -1.66 -1.93 -1.27 -0.82 -0.82 -0.54 -0.48 -0.21 -0.16 -0.16 -0.04 -0.03 0.09 0.09 0.14 0.16 0.15 0.15 0.14 0.11 0.11 0.11 0.08 0.07 0.07 0.06 0.05 0.05 0.05 0.05 0.05 0.03 0.00 0.00 0.00 0.00 0.00 0.00 0.00 0.01 0.01 0.09 0.01 0.00 0.00 0.03 -0.02 -0.02 -0.01 -0.01 0.02 0.03 0.08 0.08 0.05 0.05 0.06 0.06 0.05 0.01 0.01 0.00 0.00 0.00 0.00 0.00 0.06
-0.01 -0.01 -0.01 -0.01 -0.01 -0.01 -0.01 -0.01 -0.02 -0.02 -0.03 -0.05 -0.03 -0.03 -0.02 -0.02 -0.02 0.01 0.01 -0.01 -0.01 -0.01 -0.01 0.00 -0.08 -0.08 -0.14 -0.18 -0.31 -0.31 -0.41 -0.57 -0.72 -0.72 -1.19 -1.61 -1.61 -1.88 -1.66 -1.13 -1.13 -0.58 -0.60 -0.19 -0.06 -0.06 0.09 0.11 0.02 0.02 0.12 0.11 0.12 0.12 0.08 0.08 0.08 0.08 0.09 0.07 0.07 0.06 0.05 0.05 0.05 0.05 0.06 0.05 0.00 0.00 0.00 0.00 0.00 0.00 0.00 0.00 0.00 0.05 0.10 -0.00 -0.00 0.02 0.01 -0.02 -0.02 -0.02 0.02 0.03 0.06 0.06 0.05 0.06 0.06 0.06 0.05 0.06 0.06 0.00 -0.00 0.00 0.00 0.00 0.00
-0.01 -0.01 -0.01 -0.01 -0.01 -0.01 -0.01 -0.01 -0.01 -0.01 -0.03 -0.07 -0.05 -0.05 -0.06 -0.02 -0.02 0.00 0.01 0.01 0.01 -0.01 -0.01 0.01 -0.09 -0.09 -0.16 -0.17 -0.32 -0.32 -0.39 -0.48 -0.70 -0.70 -0.81 -1.45 -1.45 -1.77 -1.89 -1.36 -1.36 -0.78 -0.75 -0.57 -0.15 -0.15 -0.13 -0.01 -0.01 -0.01 0.09 0.10 0.08 0.08 0.06 0.06 0.06 0.06 0.07 0.07 0.07 0.07 0.06 0.05 0.05 0.05 0.06 0.07 0.08 0.08 0.05 0.01 0.00 0.00 0.00 0.00 0.00 -0.00 0.09 -0.00 -0.00 0.01 0.01 -0.02 -0.01 -0.01 -0.01 0.03 0.02 0.02 0.06 0.05 0.04 0.04 0.06 0.05 0.05 0.01 -0.00 0.00 0.00 0.00 0.00
-0.01 -0.01 -0.01 -0.01 -0.01 -0.01 -0.01 -0.00 -0.00 -0.00 -0.01 -0.07 -0.07 -0.07 -0.06 -0.05 -0.05 -0.02 0.00 0.01 0.01 -0.01 -0.01 0.01 -0.07 -0.07 -0.21 -0.23 -0.20 -0.20 -0.33 -0.44 -0.63 -0.63 -0.69 -1.22 -1.22 -1.69 -1.88 -1.61 -1.61 -1.22 -0.93 -0.80 -0.27 -0.27 -0.36 -0.29 -0.06 -0.06 0.02 0.06 0.06 0.06 0.05 0.06 0.06 0.06 0.06 0.05 0.05 0.07 0.07 0.05 0.05 0.05 0.05 0.08 0.10 0.10 0.11 0.04 0.03 0.03 0.00 0.00 0.00 -0.00 -0.00 -0.01 -0.01 -0.00 0.01 0.04 0.02 0.02 -0.00 0.05 0.00 0.00 0.03 0.05 0.03 0.03 0.06 0.04 0.04 0.01 -0.00 0.00 0.00 0.00 0.00
-0.01 -0.01 -0.01 -0.01 -0.01 -0.01 -0.01 -0.01 -0.00 -0.00 -0.01 -0.03 -0.06 -0.06 -0.05 -0.04 -0.04 -0.04 0.00 0.01 0.01 0.01 0.00 -0.01 -0.09 -0.09 -0.12 -0.27 -0.31 -0.31 -0.29 -0.35 -0.61 -0.61 -0.68 -0.76 -0.76 -1.47 -1.92 -1.72 -1.72 -1.57 -1.13 -1.01 -0.84 -0.84 -0.49 -0.34 -0.04 -0.04 -0.00 0.06 0.05 0.05 0.05 0.05 0.05 0.06 0.05 0.05 0.05 0.05 0.07 0.05 0.05 0.05 0.08 0.09 0.11 0.11 0.13 0.10 0.07 0.07 0.03 0.00 0.00 -0.00 -0.00 -0.01 -0.01 -0.01 0.00 0.04 0.06 0.06 -0.00 -0.00 0.01 0.01 0.03 0.06 0.03 0.03 0.02 0.03 0.03 0.02 -0.00 0.00 0.00 0.00 0.01
-0.01 -0.01 -0.01 -0.01 -0.01 -0.01 -0.01 -0.00 -0.00 -0.00 -0.00 -0.02 -0.04 -0.04 -0.03 -0.05 -0.05 -0.04 -0.02 0.00 0.00 0.00 0.01 0.03 -0.07 -0.07 -0.12 -0.24 -0.37 -0.37 -0.46 -0.36 -0.46 -0.46 -0.59 -0.74 -0.74 -1.21 -1.68 -2.01 -2.01 -1.87 -1.47 -1.26 -0.99 -0.99 -0.51 -0.31 -0.21 -0.21 -0.01 0.04 0.05 0.05 0.05 0.05 0.05 0.05 0.05 0.05 0.05 0.06 0.08 0.07 0.01 0.01 0.09 0.11 0.12 0.12 0.15 0.14 0.12 0.12 0.07 0.00 0.00 -0.00 -0.00 -0.01 -0.01 -0.02 0.00 0.01 0.07 0.07 0.05 0.03 0.05 0.05 0.03 0.06 0.11 0.11 0.02 0.02 0.02 0.01 -0.00 -0.00 -0.00 0.00 0.01
-0.00 -0.01 -0.01 -0.01 -0.01 -0.01 -0.01 -0.00 -0.00 -0.00 -0.00 -0.01 -0.02 -0.02 -0.03 -0.04 -0.04 -0.06 -0.02 -0.04 -0.04 -0.01 0.01 0.03 -0.02 -0.02 -0.11 -0.24 -0.35 -0.35 -0.50 -0.54 -0.62 -0.62 -0.52 -0.68 -0.68 -0.99 -1.43 -2.00 -2.00 -2.46 -2.07 -1.51 -1.06 -1.06 -0.89 -0.46 -0.24 -0.24 -0.03 0.03 0.06 0.06 0.06 0.05 0.05 0.05 0.05 0.05 0.05 0.05 0.07 0.03 0.05 0.05 0.12 0.12 0.13 0.13 0.16 0.15 0.14 0.14 0.14 0.09 0.09 -0.00 -0.00 -0.00 -0.00 -0.03 -0.00 0.01 0.07 0.07 0.09 0.05 0.03 0.03 0.10 0.04 0.11 0.11 0.10 0.03 0.03 0.01 -0.00 0.00 0.00 -0.00 0.01
-0.00 -0.00 -0.01 -0.01 -0.01 -0.01 -0.01 -0.00 -0.00 -0.00 -0.00 -0.01 -0.02 -0.02 -0.02 -0.03 -0.03 -0.05 -0.06 -0.02 -0.02 -0.04 0.01 0.01 -0.02 -0.02 -0.07 -0.15 -0.29 -0.29 -0.41 -0.62 -0.67 -0.67 -0.56 -0.61 -0.61 -0.76 -1.16 -1.69 -1.69 -2.48 -2.56 -2.06 -1.15 -1.15 -0.88 -0.75 -0.41 -0.41 -0.11 0.02 0.07 0.07 0.08 0.06 0.06 0.04 0.04 0.05 0.05 0.06 0.08 0.03 0.05 0.05 0.11 0.14 0.15 0.15 0.18 0.16 0.14 0.14 0.15 0.12 0.12 0.07 -0.00 -0.00 -0.00 -0.01 -0.01 -0.03 0.06 0.06 0.08 0.08 0.03 0.03 0.08 0.08 0.10 0.10 0.15 0.15 0.15 0.02 0.00 0.00 0.00 -0.00 -0.00
-0.00 -0.00 -0.01 -0.01 -0.01 -0.01 -0.01 -0.01 -0.00 -0.00 -0.00 -0.02 -0.02 -0.02 -0.01 -0.02 -0.02 -0.03 -0.04 -0.04 -0.04 -0.03 0.00 -0.02 -0.02 -0.02 -0.04 -0.11 -0.20 -0.20 -0.31 -0.63 -0.75 -0.75 -0.75 -0.63 -0.63 -0.69 -1.09 -1.37 -1.37 -1.64 -2.55 -2.47 -1.46 -1.46 -0.93 -0.82 -0.68 -0.68 -0.32 -0.06 0.07 0.07 0.11 0.08 0.08 0.05 0.04 0.05 0.05 0.07 0.08 0.09 0.04 0.04 0.16 0.19 0.18 0.18 0.19 0.16 0.15 0.15 0.15 0.15 0.15 0.11 0.03 0.00 0.00 -0.00 -0.02 -0.03 -0.01 -0.01 0.08 0.08 0.08 0.08 0.09 0.11 0.06 0.06 0.11 0.07 0.07 0.04 0.01 -0.00 -0.00 -0.00 -0.00
-0.00 -0.00 -0.00 -0.01 -0.01 -0.01 -0.01 -0.01 -0.00 -0.00 -0.01 -0.02 -0.02 -0.02 -0.01 -0.02 -0.02 -0.02 -0.02 -0.05 -0.05 -0.05 -0.02 -0.02 -0.04 -0.04 -0.02 -0.08 -0.19 -0.19 -0.24 -0.39 -0.64 -0.64 -0.80 -0.67 -0.67 -0.63 -0.75 -1.20 -1.20 -1.39 -2.27 -2.41 -1.76 -1.76 -1.17 -1.23 -0.79 -0.79 -0.57 -0.16 0.03 0.03 0.09 0.09 0.09 0.06 0.03 0.05 0.05 0.06 0.07 0.09 0.00 0.00 0.15 0.22 0.21 0.21 0.22 0.20 0.16 0.16 0.16 0.15 0.15 0.14 0.08 0.01 0.01 -0.00 -0.07 -0.04 -0.01 -0.01 0.01 0.08 0.09 0.09 0.02 0.11 0.06 0.06 0.01 -0.03 -0.03 0.07 0.02 0.00 0.00 0.02 -0.00
-0.00 -0.00 -0.00 -0.00 -0.01 -0.01 -0.01 -0.00 -0.00 -0.00 -0.00 -0.01 -0.01 -0.01 -0.01 -0.00 -0.00 -0.02 -0.02 -0.00 -0.00 -0.02 -0.01 -0.03 -0.03 -0.03 -0.04 -0.09 -0.14 -0.14 -0.23 -0.25 -0.64 -0.64 -0.64 -0.67 -0.67 -0.79 -0.82 -0.87 -0.87 -1.06 -1.28 -2.07 -2.20 -2.20 -1.99 -1.72 -1.52 -1.52 -0.82 -0.50 -0.35 -0.35 -0.10 0.08 0.08 0.06 0.05 0.08 0.08 0.08 0.08 0.08 -0.06 -0.06 -0.04 0.22 0.26 0.26 0.33 0.29 0.27 0.27 0.18 0.16 0.16 0.14 0.09 0.08 0.08 0.04 -0.05 -0.13 -0.07 -0.07 0.03 0.06 0.10 0.10 0.03 0.03 0.07 0.07 0.11 0.06 0.06 -0.04 0.03 0.01 0.01 0.03 0.01
-0.00 -0.00 -0.00 -0.00 -0.00 -0.00 -0.00 -0.00 -0.01 -0.01 -0.01 -0.01 -0.01 -0.01 -0.02 -0.01 -0.01 -0.02 -0.01 -0.02 -0.02 -0.01 -0.01 -0.05 -0.07 -0.07 -0.06 -0.09 -0.13 -0.13 -0.19 -0.26 -0.34 -0.34 -0.68 -0.65 -0.65 -0.82 -0.91 -1.01 -1.01 -0.96 -1.12 -1.77 -2.26 -2.26 -2.05 -1.76 -1.48 -1.48 -1.07 -0.66 -0.49 -0.49 -0.10 0.03 0.03 0.07 0.04 0.08 0.08 0.06 0.08 0.09 -0.09 -0.09 -0.08 -0.08 0.27 0.27 0.36 0.29 0.27 0.27 0.25 0.18 0.18 0.15 0.14 0.11 0.11 0.18 0.10 -0.12 -0.06 -0.06 -0.05 0.02 0.12 0.12 0.03 0.04 0.08 0.08 0.09 0.07 0.07 -0.04 0.00 -0.01 -0.01 -0.00 0.02
-0.00 -0.00 -0.00 -0.00 -0.01 -0.01 -0.01 -0.01 -0.01 -0.01 -0.01 -0.01 -0.01 -0.01 -0.02 -0.03 -0.03 -0.03 -0.02 -0.03 -0.03 0.01 -0.01 -0.01 -0.02 -0.02 -0.02 -0.08 -0.11 -0.11 -0.15 -0.23 -0.27 -0.27 -0.80 -0.66 -0.66 -0.65 -0.81 -1.16 -1.16 -1.11 -1.04 -1.20 -1.86 -1.86 -1.78 -1.61 -1.38 -1.38 -1.30 -0.95 -0.70 -0.70 -0.33 -0.03 -0.03 0.03 0.06 -0.04 -0.04 -0.04 0.09 0.10 0.15 0.15 -0.12 -0.18 0.20 0.20 0.45 0.43 0.28 0.28 0.27 0.23 0.23 0.17 0.15 0.23 0.23 0.18 0.33 0.25 -0.05 -0.05 -0.07 -0.00 0.07 0.07 0.16 0.03 0.09 0.09 0.08 0.03 0.03 -0.01 -0.04 -0.01 -0.01 -0.01 0.01
-0.00 -0.00 -0.00 -0.01 -0.01 -0.01 -0.01 -0.01 -0.01 -0.01 -0.01 -0.01 -0.01 -0.01 -0.00 -0.01 -0.01 -0.02 -0.02 -0.02 -0.02 0.02 -0.02 -0.03 -0.02 -0.02 -0.02 -0.05 -0.10 -0.10 -0.15 -0.23 -0.30 -0.30 -0.39 -0.59 -0.59 -0.52 -0.73 -0.87 -0.87 -1.35 -1.19 -1.11 -1.48 -1.48 -1.43 -1.75 -1.42 -1.42 -1.06 -1.00 -0.69 -0.69 -0.45 -0.24 -0.24 -0.04 0.09 -0.03 -0.03 -0.04 -0.13 -0.17 0.13 0.13 -0.02 -0.19 0.01 0.01 0.49 0.54 0.48 0.48 0.46 0.33 0.33 0.24 0.31 0.32 0.32 0.30 0.41 0.34 -0.07 -0.07 -0.08 -0.04 0.01 0.01 0.11 0.10 0.07 0.07 0.08 0.09 0.09 0.01 -0.01 0.02 0.02 -0.02 0.00
-0.01 -0.00 -0.00 -0.01 -0.01 -0.01 -0.01 -0.01 -0.01 -0.01 -0.01 -0.01 -0.01 -0.01 -0.01 -0.01 -0.01 -0.02 -0.04 -0.03 -0.03 -0.01 -0.04 -0.03 -0.03 -0.03 -0.03 -0.03 -0.05 -0.05 -0.05 -0.19 -0.30 -0.30 -0.46 -0.40 -0.40 -0.40 -0.28 -0.75 -0.75 -1.12 -1.62 -1.41 -1.23 -1.23 -1.14 -1.41 -1.69 -1.69 -1.34 -0.73 -0.48 -0.48 -0.42 -0.27 -0.27 -0.10 0.09 0.13 0.13 0.00 -0.09 -0.18 -0.12 -0.12 0.20 0.03 -0.02 -0.02 0.15 0.67 0.63 0.63 0.70 0.54 0.54 0.40 0.48 0.42 0.42 0.38 0.42 0.42 0.22 0.22 -0.04 -0.02 -0.02 -0.02 0.02 0.08 0.04 0.04 0.06 0.08 0.08 0.08 0.01 0.04 0.04 0.00 -0.00
-0.01 -0.01 -0.01 -0.01 -0.02 -0.02 -0.02 -0.01 -0.01 -0.01 -0.01 -0.01 -0.01 -0.01 -0.01 -0.00 -0.00 -0.01 -0.04 -0.02 -0.02 -0.01 -0.07 -0.05 -0.04 -0.04 -0.04 -0.03 -0.03 -0.03 -0.04 -0.08 -0.24 -0.24 -0.43 -0.34 -0.34 -0.24 -0.22 -0.70 -0.70 -0.94 -1.25 -1.75 -1.47 -1.47 -1.22 -1.23 -1.55 -1.55 -1.49 -0.89 -0.55 -0.55 -0.26 -0.24 -0.24 -0.10 0.08 0.12 0.12 0.10 -0.00 -0.04 -0.20 -0.20 -0.09 -0.05 0.01 0.01 -0.02 0.63 0.73 0.73 0.72 0.60 0.60 0.54 0.54 0.61 0.61 0.43 0.47 0.54 0.37 0.37 0.18 0.03 -0.00 -0.00 -0.01 0.01 0.01 0.01 0.08 0.02 0.02 0.03 0.04 0.09 0.09 0.02 0.00
-0.01 -0.01 -0.01 -0.01 -0.02 -0.02 -0.02 -0.02 -0.01 -0.01 -0.01 -0.01 -0.01 -0.01 -0.01 -0.00 -0.00 -0.00 -0.01 0.00 0.00 -0.04 -0.07 -0.06 -0.05 -0.05 -0.05 -0.04 -0.03 -0.03 -0.04 -0.06 -0.15 -0.15 -0.30 -0.54 -0.54 -0.24 -0.21 -0.56 -0.56 -0.89 -1.13 -1.70 -1.68 -1.68 -1.69 -1.19 -1.36 -1.36 -1.56 -1.34 -0.61 -0.61 -0.19 -0.16 -0.16 -0.08 0.17 0.09 0.09 0.09 0.06 0.01 -0.19 -0.19 -0.23 -0.30 0.01 0.01 -0.16 0.05 0.64 0.64 0.63 0.71 0.71 0.60 0.54 0.58 0.58 0.53 0.58 0.58 0.49 0.49 0.27 0.26 0.03 0.03 0.03 0.05 -0.04 -0.04 0.00 0.00 0.00 -0.01 -0.01 -0.02 -0.02 0.09 0.01
-0.01 -0.01 -0.02 -0.01 -0.01 -0.01 -0.03 -0.03 -0.02 -0.02 -0.01 -0.01 -0.01 -0.01 -0.01 -0.00 -0.00 -0.00 -0.00 0.02 0.02 -0.03 -0.08 -0.08 -0.07 -0.07 -0.06 -0.06 -0.05 -0.05 -0.07 -0.07 -0.10 -0.10 -0.18 -0.38 -0.38 -0.41 -0.26 -0.17 -0.17 -0.72 -1.01 -1.13 -1.29 -1.29 -1.63 -1.21 -1.12 -1.12 -1.42 -1.60 -1.00 -1.00 -0.25 -0.06 -0.06 -0.05 0.09 0.23 0.23 0.11 0.09 0.04 -0.07 -0.07 -0.22 -0.38 -0.17 -0.17 -0.03 -0.27 0.12 0.12 0.48 0.44 0.44 0.71 0.57 0.55 0.55 0.49 0.67 0.66 0.57 0.57 0.44 0.44 0.23 0.23 0.09 0.10 0.06 0.06 -0.02 -0.01 -0.01 -0.00 -0.03 -0.04 -0.04 -0.01 0.07
-0.01 -0.02 -0.02 -0.01 -0.00 -0.00 -0.02 -0.03 -0.04 -0.04 -0.03 -0.02 -0.02 -0.02 -0.02 -0.01 -0.01 -0.01 0.02 0.01 0.01 -0.01 -0.03 -0.07 -0.08 -0.08 -0.08 -0.08 -0.09 -0.09 -0.08 -0.07 -0.06 -0.06 -0.10 -0.23 -0.23 -0.36 -0.30 -0.15 -0.15 -0.45 -0.78 -0.97 -0.90 -0.90 -1.17 -1.50 -1.06 -1.06 -1.10 -1.19 -1.32 -1.32 -0.61 0.07 0.07 0.01 0.04 0.30 0.30 0.19 0.11 0.06 0.00 0.00 -0.12 -0.35 -0.56 -0.56 -0.19 -0.13 0.04 0.04 0.11 0.38 0.38 0.61 0.61 0.57 0.57 0.47 0.43 0.66 0.63 0.63 0.55 0.50 0.40 0.40 0.17 0.16 0.12 0.12 0.02 -0.01 -0.01 -0.01 -0.02 -0.03 -0.03 -0.02 0.00
-0.02 -0.02 -0.01 -0.01 -0.00 -0.00 -0.02 -0.03 -0.04 -0.04 -0.05 -0.05 -0.03 -0.03 -0.02 -0.02 -0.02 -0.01 0.03 0.02 0.02 -0.02 -0.02 -0.05 -0.06 -0.06 -0.07 -0.08 -0.06 -0.06 -0.07 -0.08 -0.07 -0.07 -0.07 -0.12 -0.12 -0.13 -0.34 -0.14 -0.14 -0.09 -0.54 -0.78 -0.55 -0.55 -0.74 -1.05 -1.19 -1.19 -1.05 -1.06 -1.22 -1.22 -0.93 -0.37 -0.37 0.01 0.03 0.18 0.18 0.31 0.17 0.10 -0.03 -0.03 -0.10 -0.18 -0.62 -0.62 -0.47 -0.25 0.08 0.08 -0.02 0.15 0.15 0.47 0.48 0.56 0.56 0.47 0.42 0.50 0.61 0.61 0.59 0.54 0.45 0.45 0.36 0.32 0.16 0.16 0.09 0.08 0.08 -0.01 -0.02 -0.03 -0.03 -0.02 -0.00
-0.02 -0.02 -0.02 -0.01 -0.01 -0.01 -0.01 -0.03 -0.05 -0.05 -0.06 -0.10 -0.07 -0.07 -0.04 -0.03 -0.03 -0.02 -0.01 -0.03 -0.03 -0.03 -0.03 -0.02 -0.03 -0.03 -0.04 -0.04 -0.02 -0.02 -0.02 -0.07 -0.08 -0.08 -0.07 -0.08 -0.08 -0.11 -0.24 -0.24 -0.24 -0.09 -0.32 -0.60 -0.47 -0.47 -0.42 -0.64 -1.06 -1.06 -1.09 -1.03 -1.03 -1.03 -0.87 -0.60 -0.60 -0.27 -0.07 0.14 0.14 0.33 0.28 0.23 -0.00 -0.00 -0.07 -0.24 -0.54 -0.54 -0.62 -0.34 -0.19 -0.19 -0.26 0.04 0.04 0.41 0.41 0.50 0.50 0.37 0.47 0.50 0.50 0.50 0.52 0.49 0.52 0.52 0.40 0.38 0.30 0.30 0.17 0.13 0.13 0.09 -0.02 -0.03 -0.03 -0.03 -0.01
-0.03 -0.02 -0.01 -0.01 -0.01 -0.01 -0.02 -0.03 -0.04 -0.04 -0.10 -0.15 -0.16 -0.16 -0.05 -0.04 -0.04 -0.03 -0.05 -0.11 -0.11 -0.09 -0.08 -0.06 -0.01 -0.01 -0.01 -0.03 -0.02 -0.02 -0.01 -0.03 -0.04 -0.04 -0.06 -0.07 -0.07 -0.12 -0.14 -0.21 -0.21 -0.19 -0.11 -0.30 -0.29 -0.29 -0.36 -0.39 -0.68 -0.68 -1.22 -1.12 -1.07 -1.07 -0.80 -0.67 -0.67 -0.51 -0.21 -0.03 -0.03 0.31 0.33 0.30 0.20 0.20 -0.04 -0.23 -0.41 -0.41 -0.82 -0.47 -0.75 -0.75 -0.27 -0.05 -0.05 0.20 0.58 0.45 0.45 0.42 0.43 0.45 0.44 0.44 0.49 0.48 0.45 0.45 0.52 0.43 0.36 0.36 0.27 0.20 0.20 0.13 0.09 -0.02 -0.02 -0.03 -0.03
-0.02 -0.02 -0.01 -0.01 -0.01 -0.01 -0.01 -0.03 -0.04 -0.04 -0.11 -0.18 -0.23 -0.23 -0.08 -0.07 -0.07 -0.15 -0.05 -0.12 -0.12 -0.16 -0.15 -0.13 -0.07 -0.07 -0.05 -0.06 -0.02 -0.02 -0.02 -0.01 -0.03 -0.03 -0.02 -0.03 -0.03 -0.10 -0.18 -0.15 -0.15 -0.18 -0.13 -0.14 -0.17 -0.17 -0.22 -0.34 -0.47 -0.47 -0.78 -1.05 -1.20 -1.20 -1.12 -0.74 -0.74 -0.66 -0.46 -0.24 -0.24 0.04 0.34 0.24 0.23 0.23 0.20 -0.10 -0.14 -0.14 -0.44 -0.82 -0.90 -0.90 -0.68 -0.27 -0.27 0.03 0.19 0.51 0.51 0.55 0.50 0.46 0.42 0.42 0.39 0.42 0.46 0.46 0.46 0.47 0.41 0.41 0.38 0.38 0.38 0.21 0.13 0.12 0.12 -0.03 -0.03
-0.02 -0.02 -0.01 -0.02 -0.02 -0.02 -0.02 -0.04 -0.04 -0.04 -0.09 -0.15 -0.21 -0.21 -0.20 -0.34 -0.34 -0.28 -0.09 -0.06 -0.06 -0.09 -0.14 -0.15 -0.15 -0.15 -0.11 -0.13 -0.05 -0.05 -0.03 -0.04 -0.02 -0.02 -0.02 -0.02 -0.02 -0.06 -0.18 -0.16 -0.16 -0.12 -0.12 -0.18 -0.21 -0.21 -0.16 -0.15 -0.34 -0.34 -0.54 -0.79 -0.95 -0.95 -1.20 -1.02 -1.02 -0.88 -0.60 -0.30 -0.30 -0.23 0.08 0.16 0.18 0.18 0.14 0.09 0.07 0.07 -0.19 -0.63 -0.71 -0.71 -0.62 -0.49 -0.49 -0.18 -0.23 0.03 0.03 0.60 0.49 0.62 0.47 0.47 0.40 0.41 0.43 0.43 0.42 0.46 0.46 0.46 0.41 0.41 0.41 0.38 0.22 0.23 0.23 0.09 -0.03
-0.02 -0.02 -0.02 -0.02 -0.02 -0.02 -0.02 -0.04 -0.05 -0.05 -0.06 -0.13 -0.19 -0.19 -0.31 -0.36 -0.36 -0.34 -0.15 -0.05 -0.05 -0.02 -0.06 -0.10 -0.13 -0.13 -0.15 -0.17 -0.15 -0.15 -0.08 -0.07 -0.07 -0.07 -0.03 -0.03 -0.03 -0.02 -0.09 -0.21 -0.21 -0.11 -0.11 -0.13 -0.24 -0.24 -0.23 -0.20 -0.20 -0.20 -0.21 -0.41 -0.64 -0.64 -0.83 -1.12 -1.12 -1.03 -0.74 -0.49 -0.49 -0.28 -0.14 0.03 0.10 0.10 0.08 -0.03 0.05 0.05 -0.07 -0.30 -0.63 -0.63 -0.71 -0.59 -0.59 -0.26 -0.30 -0.21 -0.21 0.33 0.47 0.48 0.59 0.59 0.43 0.38 0.38 0.38 0.44 0.43 0.45 0.45 0.46 0.40 0.40 0.38 0.33 0.26 0.26 0.22 0.08
-0.01 -0.02 -0.02 -0.02 -0.02 -0.02 -0.03 -0.05 -0.05 -0.05 -0.06 -0.12 -0.15 -0.15 -0.21 -0.27 -0.27 -0.33 -0.37 -0.19 -0.19 -0.07 -0.05 -0.07 -0.10 -0.10 -0.09 -0.10 -0.10 -0.10 -0.08 -0.07 -0.07 -0.07 -0.05 -0.05 -0.05 -0.05 -0.03 -0.11 -0.11 -0.20 -0.13 -0.10 -0.14 -0.14 -0.28 -0.23 -0.15 -0.15 -0.10 -0.24 -0.43 -0.43 -0.54 -0.75 -0.75 -0.68 -0.84 -0.56 -0.56 -0.34 -0.05 0.06 0.15 0.15 0.04 -0.00 -0.07 -0.07 -0.03 -0.16 -0.25 -0.25 -0.68 -0.85 -0.85 -0.55 -0.29 -0.30 -0.30 -0.06 0.02 0.51 0.50 0.50 0.55 0.39 0.34 0.34 0.34 0.37 0.40 0.40 0.44 0.42 0.42 0.39 0.34 0.33 0.33 0.27 0.19
-0.01 -0.03 -0.03 -0.03 -0.03 -0.03 -0.03 -0.04 -0.06 -0.06 -0.07 -0.14 -0.16 -0.16 -0.22 -0.24 -0.24 -0.26 -0.33 -0.34 -0.34 -0.23 -0.10 -0.05 -0.07 -0.07 -0.09 -0.09 -0.08 -0.08 -0.06 -0.05 -0.06 -0.06 -0.06 -0.03 -0.03 -0.03 -0.06 -0.06 -0.06 -0.15 -0.12 -0.09 -0.08 -0.08 -0.27 -0.28 -0.18 -0.18 0.02 -0.10 -0.28 -0.28 -0.45 -0.48 -0.48 -0.42 -0.73 -0.60 -0.60 -0.41 -0.15 0.03 0.20 0.20 0.22 0.11 -0.03 -0.03 -0.08 -0.11 -0.12 -0.12 -0.27 -0.82 -0.82 -0.66 -0.43 -0.18 -0.18 -0.28 -0.22 0.46 0.56 0.56 0.52 0.49 0.34 0.34 0.33 0.33 0.35 0.35 0.36 0.36 0.36 0.33 0.37 0.33 0.33 0.30 0.26
-0.02 -0.03 -0.04 -0.04 -0.03 -0.03 -0.03 -0.03 -0.05 -0.05 -0.08 -0.16 -0.21 -0.21 -0.19 -0.23 -0.23 -0.24 -0.27 -0.36 -0.36 -0.33 -0.20 -0.08 -0.08 -0.08 -0.11 -0.11 -0.09 -0.09 -0.06 -0.04 -0.04 -0.04 -0.03 -0.01 -0.01 -0.01 -0.01 -0.05 -0.05 -0.08 -0.21 -0.12 -0.07 -0.07 -0.10 -0.28 -0.23 -0.23 -0.14 -0.04 -0.15 -0.15 -0.40 -0.39 -0.39 -0.35 -0.34 -0.44 -0.44 -0.41 -0.28 -0.03 0.13 0.13 0.22 0.19 0.11 0.11 -0.04 -0.03 -0.11 -0.11 -0.13 -0.29 -0.29 -0.63 -0.55 -0.22 -0.22 -0.15 -0.02 -0.06 0.54 0.54 0.54 0.56 0.43 0.43 0.39 0.39 0.33 0.33 0.34 0.33 0.33 0.35 0.31 0.26 0.26 0.29 0.30
-0.02 -0.03 -0.04 -0.04 -0.03 -0.03 -0.04 -0.04 -0.06 -0.06 -0.09 -0.12 -0.14 -0.14 -0.17 -0.19 -0.19 -0.25 -0.27 -0.33 -0.33 -0.34 -0.30 -0.14 -0.14 -0.14 -0.12 -0.13 -0.11 -0.11 -0.07 -0.05 -0.04 -0.04 -0.02 -0.01 -0.01 -0.01 -0.01 -0.02 -0.02 -0.05 -0.08 -0.23 -0.10 -0.10 -0.10 -0.25 -0.26 -0.26 -0.25 -0.05 -0.12 -0.12 -0.34 -0.49 -0.49 -0.35 -0.26 -0.18 -0.18 -0.24 -0.08 -0.16 0.11 0.11 0.23 0.25 0.17 0.17 0.09 0.02 -0.02 -0.02 -0.10 -0.11 -0.11 -0.29 -0.51 -0.57 -0.57 -0.24 -0.25 -0.03 0.02 0.02 0.56 0.52 0.51 0.51 0.44 0.39 0.38 0.38 0.31 0.33 0.33 0.34 0.32 0.32 0.32 0.23 0.27
-0.02 -0.04 -0.04 -0.04 -0.04 -0.04 -0.04 -0.05 -0.08 -0.08 -0.11 -0.13 -0.10 -0.10 -0.13 -0.17 -0.17 -0.24 -0.27 -0.25 -0.25 -0.27 -0.31 -0.33 -0.26 -0.26 -0.16 -0.14 -0.13 -0.13 -0.10 -0.08 -0.06 -0.06 -0.06 -0.04 -0.04 -0.01 -0.00 -0.00 -0.00 -0.04 -0.09 -0.09 -0.23 -0.23 -0.07 -0.09 -0.28 -0.28 -0.27 -0.23 -0.09 -0.09 -0.25 -0.40 -0.40 -0.41 -0.31 -0.20 -0.20 -0.05 -0.01 0.02 -0.04 -0.04 0.18 0.17 0.21 0.21 0.15 0.10 0.07 0.07 -0.07 -0.10 -0.10 -0.10 -0.03 -0.57 -0.57 -0.53 -0.38 -0.27 0.02 0.02 0.11 0.46 0.56 0.56 0.52 0.53 0.42 0.42 0.36 0.43 0.43 0.37 0.35 0.34 0.34 0.29 0.22
-0.03 -0.04 -0.05 -0.05 -0.05 -0.05 -0.05 -0.05 -0.09 -0.09 -0.11 -0.10 -0.10 -0.10 -0.11 -0.14 -0.14 -0.17 -0.22 -0.24 -0.24 -0.22 -0.27 -0.32 -0.38 -0.38 -0.27 -0.19 -0.17 -0.17 -0.13 -0.12 -0.09 -0.09 -0.08 -0.06 -0.06 -0.03 -0.02 -0.03 -0.03 -0.05 -0.08 -0.11 -0.24 -0.24 -0.24 -0.06 -0.13 -0.13 -0.26 -0.26 -0.20 -0.20 -0.20 -0.31 -0.31 -0.42 -0.37 -0.28 -0.28 -0.12 -0.03 -0.03 0.02 0.02 0.05 0.04 0.12 0.12 0.13 0.11 0.07 0.07 0.04 -0.07 -0.07 -0.05 -0.01 -0.45 -0.45 -0.51 -0.29 -0.28 0.04 0.04 0.23 0.23 0.51 0.51 0.54 0.62 0.53 0.53 0.40 0.51 0.51 0.42 0.40 0.39 0.39 0.35 0.31
-0.02 -0.02 -0.03 -0.04 -0.05 -0.05 -0.05 -0.05 -0.08 -0.08 -0.09 -0.08 -0.12 -0.12 -0.13 -0.16 -0.16 -0.20 -0.23 -0.27 -0.27 -0.19 -0.23 -0.31 -0.31 -0.31 -0.32 -0.26 -0.16 -0.16 -0.14 -0.13 -0.12 -0.12 -0.11 -0.09 -0.09 -0.08 -0.04 -0.04 -0.04 -0.06 -0.08 -0.10 -0.12 -0.12 -0.29 -0.18 -0.15 -0.15 -0.15 -0.26 -0.22 -0.22 -0.22 -0.27 -0.27 -0.31 -0.35 -0.23 -0.23 -0.15 -0.07 -0.01 0.00 0.00 0.01 -0.06 0.03 0.03 0.08 0.10 0.07 0.07 0.05 0.02 0.02 0.01 0.00 0.05 0.05 -0.39 -0.21 -0.09 -0.01 -0.01 0.04 0.16 0.18 0.18 0.52 0.59 0.61 0.61 0.53 0.50 0.50 0.51 0.43 0.44 0.44 0.39 0.37
-0.01 -0.01 -0.02 -0.03 -0.04 -0.04 -0.05 -0.05 -0.05 -0.05 -0.07 -0.08 -0.11 -0.11 -0.16 -0.17 -0.17 -0.19 -0.23 -0.24 -0.24 -0.23 -0.17 -0.19 -0.25 -0.25 -0.30 -0.30 -0.26 -0.26 -0.15 -0.14 -0.14 -0.14 -0.13 -0.12 -0.12 -0.11 -0.08 -0.08 -0.08 -0.08 -0.09 -0.10 -0.12 -0.12 -0.14 -0.23 -0.20 -0.20 -0.12 -0.26 -0.34 -0.34 -0.28 -0.26 -0.26 -0.28 -0.29 -0.18 -0.18 -0.15 -0.13 -0.02 -0.01 -0.01 0.05 0.07 -0.03 -0.03 0.03 0.07 0.09 0.09 0.08 0.07 0.07 0.09 0.01 0.04 0.04 0.05 -0.07 -0.12 0.10 0.10 0.18 0.05 0.06 0.06 0.14 0.21 0.59 0.59 0.56 0.52 0.52 0.51 0.49 0.48 0.48 0.48 0.41
-0.01 -0.02 -0.03 -0.03 -0.03 -0.03 -0.03 -0.04 -0.03 -0.03 -0.06 -0.07 -0.08 -0.08 -0.17 -0.20 -0.20 -0.21 -0.24 -0.26 -0.26 -0.26 -0.17 -0.19 -0.21 -0.21 -0.25 -0.26 -0.27 -0.27 -0.31 -0.13 -0.14 -0.14 -0.09 -0.09 -0.09 -0.09 -0.10 -0.12 -0.12 -0.08 -0.09 -0.11 -0.10 -0.10 -0.11 -0.14 -0.16 -0.16 -0.15 -0.12 -0.21 -0.21 -0.41 -0.45 -0.45 -0.31 -0.30 -0.20 -0.20 -0.14 -0.09 -0.14 -0.16 -0.16 -0.05 -0.06 -0.04 -0.04 -0.00 0.02 0.00 0.00 0.01 0.10 0.10 0.08 0.07 0.07 0.07 0.03 0.05 0.09 0.02 0.02 0.11 0.27 0.21 0.21 0.14 0.08 -0.00 -0.00 0.45 0.55 0.55 0.57 0.51 0.51 0.51 0.48 0.46
-0.02 -0.02 -0.03 -0.03 -0.03 -0.03 -0.03 -0.03 -0.03 -0.03 -0.06 -0.07 -0.08 -0.08 -0.15 -0.19 -0.19 -0.22 -0.23 -0.27 -0.27 -0.27 -0.29 -0.22 -0.23 -0.23 -0.23 -0.25 -0.26 -0.26 -0.31 -0.23 -0.22 -0.22 -0.13 -0.09 -0.09 -0.07 -0.05 -0.05 -0.05 -0.06 -0.08 -0.10 -0.11 -0.11 -0.11 -0.12 -0.18 -0.18 -0.21 -0.18 -0.10 -0.10 -0.28 -0.29 -0.29 -0.44 -0.39 -0.29 -0.29 -0.24 -0.05 -0.08 -0.13 -0.13 -0.11 -0.12 -0.08 -0.08 -0.06 -0.12 -0.10 -0.10 -0.01 0.01 0.01 0.05 0.04 0.06 0.06 0.02 -0.01 0.06 0.09 0.09 0.21 0.18 0.32 0.32 0.17 0.07 0.09 0.09 0.08 0.13 0.13 0.64 0.56 0.57 0.57 0.53 0.47
-0.02 -0.02 -0.02 -0.02 -0.02 -0.02 -0.02 -0.02 -0.02 -0.02 -0.04 -0.06 -0.07 -0.07 -0.08 -0.16 -0.16 -0.20 -0.24 -0.29 -0.29 -0.31 -0.35 -0.26 -0.24 -0.24 -0.21 -0.20 -0.20 -0.20 -0.21 -0.25 -0.24 -0.24 -0.23 -0.17 -0.17 -0.10 -0.08 -0.06 -0.06 -0.08 -0.09 -0.11 -0.11 -0.11 -0.12 -0.13 -0.14 -0.14 -0.19 -0.19 -0.15 -0.15 -0.06 -0.05 -0.05 -0.28 -0.41 -0.36 -0.36 -0.32 -0.18 -0.03 -0.07 -0.07 -0.11 -0.15 -0.17 -0.17 -0.09 -0.12 -0.14 -0.14 -0.09 0.00 0.00 -0.04 0.02 0.04 0.04 0.03 0.04 0.01 0.05 0.05 0.12 0.27 0.24 0.24 0.30 0.31 0.13 0.13 0.11 0.22 0.22 0.18 0.70 0.64 0.64 0.53 0.52
-0.02 -0.02 -0.02 -0.01 -0.02 -0.02 -0.02 -0.01 -0.02 -0.02 -0.03 -0.05 -0.06 -0.06 -0.06 -0.11 -0.11 -0.17 -0.26 -0.30 -0.30 -0.32 -0.30 -0.34 -0.32 -0.32 -0.26 -0.17 -0.14 -0.14 -0.13 -0.13 -0.23 -0.23 -0.26 -0.25 -0.25 -0.16 -0.11 -0.09 -0.09 -0.10 -0.10 -0.11 -0.12 -0.12 -0.11 -0.12 -0.13 -0.13 -0.15 -0.17 -0.17 -0.17 -0.14 -0.07 -0.07 -0.04 -0.38 -0.45 -0.45 -0.43 -0.28 -0.12 -0.05 -0.05 -0.08 -0.15 -0.17 -0.17 -0.19 -0.13 -0.15 -0.15 -0.11 -0.02 -0.02 0.02 0.02 0.05 0.05 0.03 0.09 0.09 0.07 0.07 0.10 0.14 0.29 0.29 0.34 0.41 0.31 0.31 0.13 0.18 0.18 0.24 0.24 0.68 0.68 0.65 0.52
-0.03 -0.02 -0.02 -0.01 -0.01 -0.01 -0.01 -0.01 -0.01 -0.01 -0.02 -0.03 -0.04 -0.04 -0.04 -0.10 -0.10 -0.13 -0.21 -0.27 -0.27 -0.31 -0.31 -0.32 -0.42 -0.42 -0.39 -0.29 -0.14 -0.14 -0.12 -0.13 -0.14 -0.14 -0.23 -0.27 -0.27 -0.28 -0.17 -0.11 -0.11 -0.12 -0.10 -0.11 -0.13 -0.13 -0.12 -0.13 -0.13 -0.13 -0.12 -0.13 -0.14 -0.14 -0.11 -0.10 -0.10 -0.07 -0.09 -0.39 -0.39 -0.53 -0.39 -0.21 -0.09 -0.09 -0.05 -0.11 -0.15 -0.15 -0.18 -0.14 -0.15 -0.15 -0.17 -0.06 -0.06 -0.05 0.05 0.08 0.08 0.10 0.16 0.15 0.14 0.14 0.11 0.12 0.17 0.17 0.15 0.35 0.36 0.36 0.40 0.45 0.45 0.20 0.24 0.40 0.40 0.54 0.64
-0.02 -0.02 -0.02 -0.01 -0.01 -0.01 -0.01 -0.01 -0.01 -0.01 -0.01 -0.03 -0.03 -0.03 -0.04 -0.07 -0.07 -0.14 -0.20 -0.29 -0.29 -0.41 -0.40 -0.40 -0.43 -0.43 -0.45 -0.39 -0.28 -0.28 -0.14 -0.14 -0.13 -0.13 -0.22 -0.21 -0.21 -0.22 -0.20 -0.19 -0.19 -0.17 -0.14 -0.11 -0.13 -0.13 -0.14 -0.14 -0.14 -0.14 -0.13 -0.12 -0.11 -0.11 -0.09 -0.12 -0.12 -0.08 -0.06 -0.09 -0.09 -0.11 -0.50 -0.30 -0.15 -0.15 -0.12 -0.08 -0.11 -0.11 -0.12 -0.09 -0.10 -0.10 -0.13 -0.14 -0.14 -0.02 0.03 0.07 0.07 0.13 0.17 0.17 0.19 0.19 0.21 0.15 0.12 0.12 0.13 0.15 0.32 0.32 0.40 0.34 0.34 0.36 0.24 0.32 0.32 0.60 0.73
-0.02 -0.02 -0.02 -0.01 -0.01 -0.01 -0.01 -0.01 -0.01 -0.01 -0.01 -0.01 -0.03 -0.03 -0.05 -0.06 -0.06 -0.14 -0.21 -0.31 -0.31 -0.52 -0.52 -0.44 -0.37 -0.37 -0.43 -0.43 -0.37 -0.37 -0.18 -0.17 -0.16 -0.16 -0.22 -0.21 -0.21 -0.16 -0.15 -0.18 -0.18 -0.19 -0.18 -0.14 -0.13 -0.13 -0.14 -0.23 -0.16 -0.16 -0.14 -0.13 -0.09 -0.09 -0.09 -0.09 -0.09 -0.17 -0.06 -0.05 -0.05 -0.04 -0.13 -0.39 -0.23 -0.23 -0.19 -0.08 -0.08 -0.08 -0.08 -0.06 -0.05 -0.05 -0.01 -0.03 -0.03 0.08 0.06 0.09 0.09 0.12 0.16 0.20 0.20 0.20 0.25 0.18 0.16 0.16 0.17 0.15 0.15 0.15 0.30 0.28 0.28 0.30 0.22 0.29 0.29 0.40 0.68
-0.02 -0.03 -0.02 -0.01 -0.01 -0.01 -0.01 -0.01 -0.01 -0.01 -0.01 -0.01 -0.02 -0.02 -0.04 -0.06 -0.06 -0.13 -0.20 -0.28 -0.28 -0.45 -0.60 -0.51 -0.40 -0.40 -0.43 -0.46 -0.46 -0.46 -0.41 -0.28 -0.28 -0.28 -0.26 -0.21 -0.21 -0.19 -0.17 -0.20 -0.20 -0.21 -0.22 -0.23 -0.21 -0.21 -0.22 -0.32 -0.29 -0.29 -0.16 -0.13 -0.13 -0.13 -0.12 -0.12 -0.12 -0.10 -0.15 -0.06 -0.06 -0.02 -0.04 -0.13 -0.27 -0.27 -0.27 -0.18 -0.08 -0.08 -0.07 -0.05 -0.04 -0.04 0.02 0.07 0.07 0.15 0.13 0.15 0.15 0.17 0.23 0.21 0.20 0.20 0.19 0.27 0.18 0.18 0.21 0.21 0.17 0.17 0.16 0.20 0.20 0.27 0.14 0.15 0.15 0.39 0.52
-0.02 -0.02 -0.02 -0.01 -0.01 -0.01 -0.01 -0.01 -0.01 -0.01 -0.01 -0.01 -0.02 -0.02 -0.03 -0.05 -0.05 -0.09 -0.18 -0.26 -0.26 -0.37 -0.57 -0.57 -0.53 -0.53 -0.49 -0.49 -0.48 -0.48 -0.49 -0.53 -0.47 -0.47 -0.40 -0.23 -0.23 -0.23 -0.23 -0.24 -0.24 -0.23 -0.21 -0.27 -0.32 -0.32 -0.32 -0.50 -0.44 -0.44 -0.26 -0.20 -0.16 -0.16 -0.19 -0.14 -0.14 -0.12 -0.12 -0.17 -0.17 -0.03 -0.01 -0.04 -0.37 -0.37 -0.34 -0.25 -0.18 -0.18 -0.07 -0.06 -0.05 -0.05 -0.03 0.09 0.09 0.12 0.15 0.14 0.14 0.24 0.28 0.27 0.24 0.24 0.24 0.23 0.24 0.24 0.22 0.23 0.22 0.22 0.19 0.18 0.18 0.24 0.14 0.20 0.20 0.27 0.33
-0.01 -0.01 -0.01 -0.02 -0.01 -0.01 -0.01 -0.01 -0.01 -0.01 -0.01 -0.01 -0.02 -0.02 -0.03 -0.05 -0.05 -0.09 -0.17 -0.21 -0.21 -0.27 -0.50 -0.62 -0.63 -0.63 -0.59 -0.47 -0.39 -0.39 -0.38 -0.71 -0.67 -0.67 -0.52 -0.36 -0.36 -0.22 -0.23 -0.29 -0.29 -0.30 -0.20 -0.27 -0.32 -0.32 -0.49 -0.53 -0.52 -0.52 -0.53 -0.33 -0.26 -0.26 -0.32 -0.23 -0.23 -0.14 -0.13 -0.15 -0.15 -0.05 0.00 -0.02 -0.06 -0.06 -0.19 -0.29 -0.21 -0.21 -0.17 -0.10 -0.10 -0.10 -0.09 -0.03 -0.03 0.09 0.15 0.16 0.16 0.16 0.27 0.34 0.31 0.31 0.34 0.23 0.16 0.16 0.17 0.16 0.25 0.25 0.19 0.24 0.24 0.19 0.24 0.20 0.20 0.30 0.31
-0.01 -0.01 -0.00 -0.01 -0.01 -0.01 -0.01 -0.01 -0.01 -0.01 -0.01 -0.01 -0.02 -0.02 -0.03 -0.04 -0.04 -0.07 -0.11 -0.16 -0.16 -0.22 -0.33 -0.59 -0.68 -0.68 -0.63 -0.52 -0.37 -0.37 -0.29 -0.44 -0.76 -0.76 -0.68 -0.48 -0.48 -0.30 -0.44 -0.41 -0.41 -0.24 -0.23 -0.26 -0.21 -0.21 -0.18 -0.37 -0.39 -0.39 -0.42 -0.51 -0.52 -0.52 -0.47 -0.46 -0.46 -0.19 -0.16 -0.22 -0.22 -0.18 0.02 0.02 -0.00 -0.00 0.00 -0.15 -0.18 -0.18 -0.18 -0.14 -0.09 -0.09 -0.13 -0.12 -0.12 -0.14 0.11 0.15 0.15 0.14 0.18 0.32 0.38 0.38 0.42 0.40 0.23 0.23 0.28 0.24 0.21 0.21 0.23 0.24 0.24 0.23 0.19 0.14 0.14 0.22 0.30
-0.01 -0.01 -0.01 -0.01 -0.01 -0.01 -0.01 -0.01 -0.01 -0.01 -0.01 -0.02 -0.02 -0.02 -0.04 -0.04 -0.04 -0.04 -0.05 -0.10 -0.10 -0.17 -0.28 -0.57 -0.70 -0.70 -0.71 -0.63 -0.54 -0.54 -0.36 -0.33 -0.76 -0.76 -0.80 -0.68 -0.68 -0.50 -0.41 -0.29 -0.29 -0.24 -0.20 -0.22 -0.22 -0.22 -0.09 -0.08 -0.22 -0.22 -0.21 -0.32 -0.51 -0.51 -0.60 -0.61 -0.61 -0.50 -0.31 -0.34 -0.34 -0.29 -0.17 0.03 0.02 0.02 0.02 0.01 -0.12 -0.12 -0.15 -0.12 -0.07 -0.07 -0.07 -0.17 -0.17 -0.15 -0.12 0.15 0.15 0.20 0.16 0.22 0.38 0.38 0.36 0.41 0.44 0.44 0.47 0.32 0.25 0.25 0.26 0.27 0.27 0.22 0.24 0.16 0.16 0.18 0.11
-0.01 -0.01 -0.01 -0.01 -0.00 -0.00 -0.00 -0.00 -0.00 -0.00 -0.01 -0.01 -0.02 -0.02 -0.04 -0.04 -0.04 -0.04 -0.04 -0.07 -0.07 -0.12 -0.22 -0.38 -0.66 -0.66 -0.76 -0.73 -0.67 -0.67 -0.56 -0.39 -0.42 -0.42 -0.78 -0.76 -0.76 -0.73 -0.75 -0.38 -0.38 -0.25 -0.19 -0.19 -0.18 -0.18 -0.12 -0.11 -0.16 -0.16 -0.18 -0.27 -0.43 -0.43 -0.52 -0.64 -0.64 -0.65 -0.53 -0.44 -0.44 -0.43 -0.34 -0.16 -0.11 -0.11 -0.04 0.06 0.04 0.04 -0.09 -0.04 -0.02 -0.02 0.01 -0.02 -0.02 0.03 -0.10 -0.08 -0.08 0.09 0.22 0.20 0.24 0.24 0.22 0.29 0.39 0.39 0.40 0.44 0.34 0.34 0.34 0.28 0.28 0.29 0.23 0.28 0.28 0.17 0.27
-0.01 -0.01 -0.01 -0.01 -0.00 -0.00 -0.00 -0.00 -0.00 -0.00 -0.00 -0.01 -0.01 -0.01 -0.02 -0.05 -0.05 -0.03 -0.02 -0.05 -0.05 -0.09 -0.16 -0.29 -0.63 -0.63 -0.78 -0.87 -1.03 -1.03 -0.71 -0.65 -0.50 -0.50 -0.75 -0.77 -0.77 -0.80 -0.86 -0.65 -0.65 -0.44 -0.40 -0.38 -0.15 -0.15 -0.23 -0.23 -0.21 -0.21 -0.14 -0.27 -0.32 -0.32 -0.40 -0.48 -0.48 -0.67 -0.60 -0.61 -0.61 -0.46 -0.47 -0.32 -0.27 -0.27 0.00 0.10 0.11 0.11 0.07 0.02 -0.03 -0.03 0.00 -0.01 -0.01 0.12 0.03 -0.08 -0.08 -0.01 0.20 0.25 0.22 0.22 0.28 0.23 0.27 0.27 0.29 0.39 0.42 0.42 0.40 0.31 0.31 0.31 0.30 0.46 0.46 0.32 0.35
-0.00 -0.01 -0.01 -0.00 -0.00 -0.00 -0.00 0.00 0.00 0.00 -0.00 -0.00 -0.01 -0.01 -0.01 -0.01 -0.01 -0.02 -0.02 -0.02 -0.02 -0.08 -0.13 -0.22 -0.56 -0.56 -0.80 -0.91 -1.08 -1.08 -0.94 -0.74 -0.71 -0.71 -0.70 -0.83 -0.83 -0.92 -0.98 -0.85 -0.85 -0.60 -0.53 -0.45 -0.43 -0.43 -0.17 -0.19 -0.27 -0.27 -0.15 -0.14 -0.15 -0.15 -0.23 -0.27 -0.27 -0.43 -0.60 -0.51 -0.51 -0.59 -0.45 -0.45 -0.43 -0.43 -0.23 0.00 0.09 0.09 0.08 0.11 0.02 0.02 -0.03 -0.04 -0.04 -0.01 0.09 0.05 0.05 0.05 0.07 0.18 0.35 0.35 0.45 0.38 0.29 0.29 0.31 0.35 0.39 0.39 0.38 0.45 0.45 0.40 0.44 0.50 0.50 0.52 0.41
-0.00 -0.01 -0.00 -0.00 0.00 0.00 0.00 0.00 0.00 0.00 0.00 -0.00 -0.00 -0.00 -0.01 -0.01 -0.01 -0.02 -0.03 -0.04 -0.04 -0.08 -0.11 -0.17 -0.26 -0.26 -0.63 -0.69 -1.00 -1.00 -1.13 -0.95 -0.80 -0.80 -0.76 -0.83 -0.83 -0.88 -0.89 -0.74 -0.74 -0.73 -0.68 -0.52 -0.51 -0.51 -0.26 -0.22 -0.22 -0.22 -0.17 -0.09 -0.07 -0.07 -0.20 -0.26 -0.26 -0.27 -0.38 -0.34 -0.34 -0.47 -0.53 -0.52 -0.59 -0.59 -0.49 -0.24 0.01 0.01 -0.04 0.08 0.10 0.10 0.03 -0.00 -0.00 -0.03 0.01 0.02 0.02 -0.05 0.05 0.18 0.34 0.34 0.60 0.54 0.44 0.44 0.52 0.36 0.35 0.35 0.35 0.36 0.36 0.43 0.39 0.34 0.34 0.47 0.52
-0.00 -0.00 0.00 0.00 0.00 0.00 -0.00 0.00 0.00 0.00 0.00 -0.00 -0.00 -0.00 -0.00 -0.01 -0.01 -0.01 -0.02 -0.06 -0.06 -0.08 -0.10 -0.12 -0.17 -0.17 -0.42 -0.47 -0.77 -0.77 -1.05 -1.07 -1.07 -1.07 -0.90 -0.83 -0.83 -0.79 -0.87 -0.87 -0.87 -0.74 -0.62 -0.54 -0.54 -0.54 -0.51 -0.37 -0.27 -0.27 -0.30 -0.20 -0.10 -0.10 -0.19 -0.27 -0.27 -0.33 -0.32 -0.29 -0.29 -0.36 -0.44 -0.62 -0.63 -0.63 -0.66 -0.52 -0.30 -0.30 -0.26 -0.04 0.09 0.09 0.11 0.05 0.05 -0.03 -0.01 0.03 0.03 -0.04 -0.08 0.01 0.23 0.23 0.30 0.58 0.62 0.62 0.65 0.57 0.45 0.45 0.32 0.32 0.32 0.34 0.38 0.33 0.33 0.33 0.42
0.00 0.00 0.00 0.00 0.00 0.00 -0.00 -0.00 0.00 0.00 0.00 -0.00 -0.00 -0.00 -0.00 -0.01 -0.01 -0.01 -0.02 -0.05 -0.05 -0.06 -0.08 -0.10 -0.12 -0.12 -0.14 -0.34 -0.53 -0.53 -0.78 -0.99 -1.06 -1.06 -1.19 -1.17 -1.17 -1.07 -0.98 -1.03 -1.03 -0.89 -0.67 -0.57 -0.42 -0.42 -0.50 -0.55 -0.44 -0.44 -0.35 -0.16 -0.14 -0.14 -0.18 -0.22 -0.22 -0.30 -0.23 -0.25 -0.25 -0.28 -0.36 -0.45 -0.47 -0.47 -0.61 -0.65 -0.52 -0.52 -0.51 -0.26 -0.07 -0.07 0.10 0.05 0.05 0.00 -0.07 0.00 0.00 0.01 0.03 -0.04 0.05 0.05 0.14 0.37 0.55 0.55 0.47 0.55 0.55 0.55 0.51 0.36 0.36 0.37 0.37 0.45 0.45 0.38 0.34
0.00 0.00 0.00 0.00 0.00 0.00 0.00 -0.00 -0.00 -0.00 -0.00 0.00 -0.00 -0.00 -0.00 -0.01 -0.01 -0.01 -0.02 -0.03 -0.03 -0.04 -0.06 -0.08 -0.11 -0.11 -0.09 -0.26 -0.41 -0.41 -0.57 -0.78 -1.03 -1.03 -1.20 -1.24 -1.24 -1.20 -0.97 -0.99 -0.99 -0.93 -0.72 -0.43 -0.38 -0.38 -0.39 -0.36 -0.45 -0.45 -0.29 -0.23 -0.21 -0.21 -0.15 -0.13 -0.13 -0.21 -0.17 -0.14 -0.14 -0.24 -0.29 -0.30 -0.23 -0.23 -0.33 -0.46 -0.58 -0.58 -0.53 -0.47 -0.31 -0.31 -0.12 -0.12 -0.12 -0.01 -0.06 -0.11 -0.11 -0.11 -0.00 0.03 0.01 0.01 0.07 0.23 0.32 0.32 0.30 0.42 0.46 0.46 0.37 0.47 0.47 0.46 0.43 0.48 0.48 0.49 0.40